FENGYUN 1C DEB

Satellite information

Favourite Embed

Satellite Type and Status

DEBRISIN ORBIT

Key statistics

Satellite FENGYUN 1C DEB at a glance.

Uptime

9714

Days in orbit

Revolutions

≈ 14.5

Per day

Orbit

SSO

Sun Synchronous Orbit

Inclination

98.6

Latest

Satellite identification and parameters

Extended collection of information and parameters for FENGYUN 1C DEB.

Object identification

Identified? True

Debris? True

Object name: FENGYUN 1C DEB

International designator: 1999-025BYT

Object number (NORAD): 31552

Object ID (CCSDS): 31552

Country: PEOPLES REPUBLIC OF CHINA (PRC)

Current information (Y/N): Y

RCS size: SMALL

Orbital parameters

Period: 99.612 minutes

Inclination: 98.6214 deg

SMA: 7118.184 km

Apoapsis: 801.029 km

Periapsis: 679.069 km

RAAN: 106.1177 deg

Eccentricy: 0.0085668

Argument of periapsis: 28.3549 deg

Mean anomaly: 332.2265 deg

Mean motion: 14.45602719 rev/day

Mean motion (dot): 0.0001571 rev/day2

B* drag term: 0.0042538 1/REarth

Two-line elements (TLE)

Creation date: Dec. 10, 2025, 3:26 p.m.

Reference frame: TEME

Reference center: EARTH

Epoch: Dec. 10, 2025, 7:13 a.m. UTC

TLE line 0: 0 FENGYUN 1C DEB

TLE line 1: 1 31552U 99025BYT 25344.30072786 .00015710 00000-0 42538-2 0 9990

TLE line 2: 2 31552 98.6214 106.1177 0085668 28.3549 332.2265 14.45602719958414

Live tracking on map

Real-time ground track for satellite FENGYUN 1C DEB.

In-orbit conjunctions

A list of the most updated potential collisions computed for object FENGYUN 1C DEB.

Target Orbit TCA Probability of collision Miss distance Type
CZ-6A DEB LEO 2025-01-30 23:40:05 0.0003174524 390.0 (m) DEBRIS
THOR ABLESTAR DEB LEO 2024-11-15 17:00:21 0.0001138485 735.0 (m) DEBRIS
SL-16 DEB LEO 2024-09-25 13:35:22 0.0001272409 299.0 (m) DEBRIS

Associated space launch

Chinese polar orbiting meteorological satellite

FENGYUN 1C DEB was lifted into orbit during the mission ‘Long March 4B | Feng Yun 1C’, on board a Long March 4B space rocket.

The launch took place on May 10, 1999, 1:33 a.m. from Launch Complex 7.

For more information about the launch, click the button.

Launch to space Long March 4B | Feng Yun 1C
Long March 4B | Feng Yun 1C

Agency: N/A

Status: Launch Successful

Launch date: May 10, 1999, 1:33 a.m. UTC

Rocket: Long March 4B

Launch pad: Launch Complex 7

Location: Taiyuan Satellite Launch Center, People's Republic of China

...

Latest news about this satellite

There are no fresh news available about this satellite. Check back as we update our databases every day.


Newsletter sign-up

Weekly statistics, charts and insights to help you stay on top of the space industry.